[TLELIST] Archives

 

[list_settings.list_name] Current TLEs

February 7th 2013 PDT

HST 1 20580U 90037B 13037.20961412 .00001506 00000-0 96238-4 0 1696 2 20580 028.4696 051.2274 0003437 040.1836 319.8984 15.03264903 49965 ISS (ZARYA) 1 25544U 98067A 13038.44306616 .00010579 00000-0 17732-3 0 1701 2 25544 051.6486 032.8159 0012443 246.2765 275.5722 15.52357109814557 CXO 1 25867U 99040B 13040.97090344 -.00000168 00000-0 00000+0 0 8538 2 25867 074.5635 347.6293 8662872 278.0035 000.4833 00.37802803 10053 ____________________________________________________________________ These 2-Line ...Continue Reading

[list_settings.list_name] Current TLEs

February 6th 2013 PDT

HST 1 20580U 90037B 13037.20961412 .00001506 00000-0 96238-4 0 1696 2 20580 028.4696 051.2274 0003437 040.1836 319.8984 15.03264903 49965 ISS (ZARYA) 1 25544U 98067A 13037.40836194 .00010311 00000-0 17318-3 0 1631 2 25544 051.6484 037.9586 0012440 242.6260 253.0082 15.52333347814392 CXO 1 25867U 99040B 13038.32470981 -.00000171 00000-0 00000+0 0 8526 2 25867 074.5416 347.8109 8665296 277.9881 000.4037 00.37799185 10041 ____________________________________________________________________ These 2-Line ...Continue Reading

[list_settings.list_name] Current TLEs

February 5th 2013 PDT

HST 1 20580U 90037B 13035.48344245 .00001302 00000-0 81531-4 0 1686 2 20580 028.4697 062.5333 0003073 021.1709 338.9008 15.03259840 49706 ISS (ZARYA) 1 25544U 98067A 13036.37928633 .00009979 00000-0 16799-3 0 1568 2 25544 051.6484 043.0736 0012568 238.7366 262.2443 15.52309689814239 CXO 1 25867U 99040B 13038.32470981 -.00000171 00000-0 00000+0 0 8526 2 25867 074.5416 347.8109 8665296 277.9881 000.4037 00.37799185 10041 ____________________________________________________________________ These 2-Line ...Continue Reading

[list_settings.list_name] Current TLEs

February 4th 2013 PDT

HST 1 20580U 90037B 13033.49169982 .00000992 00000-0 59198-4 0 1675 2 20580 028.4698 075.5799 0002958 358.3587 001.6996 15.03254794 49407 ISS (ZARYA) 1 25544U 98067A 13035.48114581 .00009530 00000-0 16089-3 0 1473 2 25544 051.6484 047.5386 0012575 235.2451 283.3509 15.52289409814092 CXO 1 25867U 99040B 13035.67947153 -.00000324 00000-0 00000+0 0 8510 2 25867 074.5235 347.9732 8666530 277.9780 000.4578 00.37800999 10038 ____________________________________________________________________ These 2-Line ...Continue Reading

[list_settings.list_name] Current TLEs

February 3rd 2013 PDT

HST 1 20580U 90037B 13033.49169982 .00000992 00000-0 59198-4 0 1675 2 20580 028.4698 075.5799 0002958 358.3587 001.6996 15.03254794 49407 ISS (ZARYA) 1 25544U 98067A 13034.39496528 .00008063 00000-0 13747-3 0 1395 2 25544 051.6480 052.9361 0012545 231.6881 333.0819 15.52262145813921 CXO 1 25867U 99040B 13035.67947153 -.00000324 00000-0 00000+0 0 8510 2 25867 074.5235 347.9732 8666530 277.9780 000.4578 00.37800999 10038 ____________________________________________________________________ These 2-Line ...Continue Reading

[list_settings.list_name] Current TLEs

February 2nd 2013 PDT

HST 1 20580U 90037B 13032.23025908 .00001105 00000-0 67302-4 0 1667 2 20580 028.4698 083.8443 0002960 343.2295 016.8180 15.03253031 49212 ISS (ZARYA) 1 25544U 98067A 13033.40655569 .00007507 00000-0 12862-3 0 1320 2 25544 051.6475 057.8497 0012694 226.9287 210.8351 15.52242571813778 CXO 1 25867U 99040B 13035.67947153 -.00000324 00000-0 00000+0 0 8510 2 25867 074.5235 347.9732 8666530 277.9780 000.4578 00.37800999 10038 ____________________________________________________________________ These 2-Line ...Continue Reading

[list_settings.list_name] Current TLEs

February 1st 2013 PDT

HST 1 20580U 90037B 13032.23025908 .00001105 00000-0 67302-4 0 1667 2 20580 028.4698 083.8443 0002960 343.2295 016.8180 15.03253031 49212 ISS (ZARYA) 1 25544U 98067A 13032.31790630 .00008418 00000-0 14334-3 0 1247 2 25544 051.6479 063.2604 0012663 222.6677 247.6602 15.52228608813609 CXO 1 25867U 99040B 13033.03659240 -.00000340 00000-0 00000+0 0 8502 2 25867 074.5018 348.1672 8666859 277.9650 000.8125 00.37804489 10022 ____________________________________________________________________ These 2-Line ...Continue Reading

[list_settings.list_name] Current TLEs

January 31st 2013 PDT

HST 1 20580U 90037B 13030.57046698 .00001323 00000-0 83085-4 0 1658 2 20580 028.4694 094.7186 0002951 322.1791 037.8591 15.03250245 48964 ISS (ZARYA) 1 25544U 98067A 13031.48707591 .00009251 00000-0 15680-3 0 1216 2 25544 051.6475 067.3905 0012961 219.4817 285.1081 15.52217289813471 CXO 1 25867U 99040B 13033.03659240 -.00000340 00000-0 00000+0 0 8502 2 25867 074.5018 348.1672 8666859 277.9650 000.8125 00.37804489 10022 ____________________________________________________________________ These 2-Line ...Continue Reading

[list_settings.list_name] Current TLEs

January 30th 2013 PDT

HST 1 20580U 90037B 13029.50819816 .00001315 00000-0 82480-4 0 1647 2 20580 028.4691 101.6763 0002997 307.7283 052.3038 15.03247619 48807 ISS (ZARYA) 1 25544U 98067A 13030.51439022 .00010615 00000-0 17881-3 0 1143 2 25544 051.6478 072.2249 0013183 215.3618 250.3289 15.52203686813325 CXO 1 25867U 99040B 13030.39198617 -.00000237 00000-0 00000+0 0 8497 2 25867 074.4790 348.3627 8665379 277.9699 000.8594 00.37800229 10016 ____________________________________________________________________ These 2-Line ...Continue Reading

[list_settings.list_name] Current TLEs

January 29th 2013 PDT

HST 1 20580U 90037B 13028.24675234 .00001258 00000-0 78359-4 0 1636 2 20580 028.4690 109.9412 0003116 290.0747 069.9518 15.03244283 48611 ISS (ZARYA) 1 25544U 98067A 13028.59217081 .00012441 00000-0 20848-3 0 1031 2 25544 051.6484 081.7801 0013124 208.5829 308.9224 15.52166503813026 CXO 1 25867U 99040B 13030.39198617 -.00000237 00000-0 00000+0 0 8497 2 25867 074.4790 348.3627 8665379 277.9699 000.8594 00.37800229 10016 ____________________________________________________________________ These 2-Line ...Continue Reading
  • This mailing list is a public mailing list - anyone may join or leave, at any time.
  • This mailing list is announce-only.

International Space Station (ISS) / Hubble Space Telescope (HST) / Chandra X-Ray Observatory Orbital Data via EMAIL

Privacy Policy:

Private list